[keps] orb12040.amsat
Ray Hoad
ray.hoad at mypbmail.com
Thu Feb 9 17:55:02 PST 2012
SB KEPS @ AMSAT $ORB12040.O
Orbital Elements 12040.OSCAR
HR AMSAT ORBITAL ELEMENTS FOR OSCAR SATELLITES
FROM WA5QGD FORT WORTH,TX February 9, 2012
Send SUBSCRIBE KEPS/UNSUBSCRIBE KEPS to majordomo at amsat.org only
BID: ORB12040.O
TO ALL RADIO AMATEURS BT
Satellite: AO-07
Catalog number: 07530
Epoch time: 12040.81794491
Element set: 302
Inclination: 101.3983 deg
RA of node: 043.0063 deg
Eccentricity: 0.0011801
Arg of perigee: 173.5092 deg
Mean anomaly: 186.6133 deg
Mean motion: 12.53587514 rev/day
Decay rate: -2.7e-07 rev/day^2
Epoch rev: 70396
Checksum: 271
Satellite: FO-29
Catalog number: 24278
Epoch time: 12039.92039242
Element set: 0786
Inclination: 098.5759 deg
RA of node: 157.5496 deg
Eccentricity: 0.0350787
Arg of perigee: 004.1394 deg
Mean anomaly: 356.2518 deg
Mean motion: 13.52976005 rev/day
Decay rate: -9.9e-07 rev/day^2
Epoch rev: 76447
Checksum: 358
Satellite: SO-33
Catalog number: 25509
Epoch time: 12039.93216087
Element set: 0164
Inclination: 031.4327 deg
RA of node: 345.0931 deg
Eccentricity: 0.0352525
Arg of perigee: 152.4474 deg
Mean anomaly: 209.5327 deg
Mean motion: 14.28666333 rev/day
Decay rate: 3.54e-06 rev/day^2
Epoch rev: 69415
Checksum: 300
Satellite: RS-22
Catalog number: 27939
Epoch time: 12040.70680146
Element set: 69
Inclination: 097.8218 deg
RA of node: 248.0366 deg
Eccentricity: 0.0012801
Arg of perigee: 316.2565 deg
Mean anomaly: 043.7621 deg
Mean motion: 14.63893876 rev/day
Decay rate: 3.75e-06 rev/day^2
Epoch rev: 44708
Checksum: 318
Satellite: VO-52
Catalog number: 28650
Epoch time: 12039.55945291
Element set: 0021
Inclination: 097.6138 deg
RA of node: 076.7826 deg
Eccentricity: 0.0027767
Arg of perigee: 106.0792 deg
Mean anomaly: 254.3466 deg
Mean motion: 14.82662881 rev/day
Decay rate: 7.90e-06 rev/day^2
Epoch rev: 36576
Checksum: 339
Satellite: HO-68
Catalog number: 36122
Epoch time: 12040.68683985
Element set: 183
Inclination: 100.3808 deg
RA of node: 102.5400 deg
Eccentricity: 0.0007671
Arg of perigee: 044.8635 deg
Mean anomaly: 315.3093 deg
Mean motion: 13.16292850 rev/day
Decay rate: -4.4e-07 rev/day^2
Epoch rev: 10348
Checksum: 280
/EX
SB KEPS @ AMSAT $ORB12040.D
Orbital Elements 12040.MICROS
HR AMSAT ORBITAL ELEMENTS FOR THE MICROSATS
FROM WA5QGD FORT WORTH,TX February 9, 2012
Send SUBSCRIBE KEPS/UNSUBSCRIBE KEPS to majordomo at amsat.org only
BID: ORB12040.D
TO ALL RADIO AMATEURS BT
Satellite: UO-11
Catalog number: 14781
Epoch time: 12040.90029171
Element set: 784
Inclination: 097.9712 deg
RA of node: 101.4498 deg
Eccentricity: 0.0010035
Arg of perigee: 088.8878 deg
Mean anomaly: 271.3480 deg
Mean motion: 14.80305337 rev/day
Decay rate: 3.64e-06 rev/day^2
Epoch rev: 50095
Checksum: 297
Satellite: AO-16
Catalog number: 20439
Epoch time: 12040.87463829
Element set: 393
Inclination: 098.4149 deg
RA of node: 347.9374 deg
Eccentricity: 0.0010811
Arg of perigee: 174.9047 deg
Mean anomaly: 185.2245 deg
Mean motion: 14.32015398 rev/day
Decay rate: 7.7e-07 rev/day^2
Epoch rev: 15163
Checksum: 313
Satellite: LO-19
Catalog number: 20442
Epoch time: 12040.84736496
Element set: 316
Inclination: 098.3808 deg
RA of node: 351.3750 deg
Eccentricity: 0.0011961
Arg of perigee: 167.4294 deg
Mean anomaly: 192.7209 deg
Mean motion: 14.32236172 rev/day
Decay rate: 1.04e-06 rev/day^2
Epoch rev: 15181
Checksum: 289
Satellite: AO-27
Catalog number: 22825
Epoch time: 12039.89125761
Element set: 27
Inclination: 098.5604 deg
RA of node: 344.8110 deg
Eccentricity: 0.0007760
Arg of perigee: 303.8915 deg
Mean anomaly: 056.1521 deg
Mean motion: 14.29428724 rev/day
Decay rate: 2.18e-06 rev/day^2
Epoch rev: 95800
Checksum: 299
Satellite: IO-26
Catalog number: 22826
Epoch time: 12040.89652795
Element set: 776
Inclination: 098.5553 deg
RA of node: 346.2049 deg
Eccentricity: 0.0008276
Arg of perigee: 294.6792 deg
Mean anomaly: 065.3526 deg
Mean motion: 14.29698654 rev/day
Decay rate: 7.7e-07 rev/day^2
Epoch rev: 95827
Checksum: 368
Satellite: GO-32
Catalog number: 25397
Epoch time: 12040.60619314
Element set: 699
Inclination: 098.3494 deg
RA of node: 025.7354 deg
Eccentricity: 0.0000542
Arg of perigee: 340.0999 deg
Mean anomaly: 020.0139 deg
Mean motion: 14.23256434 rev/day
Decay rate: -3.5e-07 rev/day^2
Epoch rev: 70573
Checksum: 291
Satellite: NO-44
Catalog number: 26931
Epoch time: 12040.60991155
Element set: 965
Inclination: 067.0512 deg
RA of node: 091.7157 deg
Eccentricity: 0.0006107
Arg of perigee: 278.6711 deg
Mean anomaly: 081.3695 deg
Mean motion: 14.29758147 rev/day
Decay rate: -3.4e-07 rev/day^2
Epoch rev: 54086
Checksum: 311
Satellite: SO-50
Catalog number: 27607
Epoch time: 12040.79289723
Element set: 684
Inclination: 064.5605 deg
RA of node: 325.4226 deg
Eccentricity: 0.0085188
Arg of perigee: 273.5273 deg
Mean anomaly: 085.6081 deg
Mean motion: 14.72207806 rev/day
Decay rate: 4.94e-06 rev/day^2
Epoch rev: 49106
Checksum: 320
Satellite: CO-55
Catalog number: 27844
Epoch time: 12040.55879265
Element set: 306
Inclination: 098.7046 deg
RA of node: 050.8030 deg
Eccentricity: 0.0008999
Arg of perigee: 232.9144 deg
Mean anomaly: 127.1219 deg
Mean motion: 14.20958826 rev/day
Decay rate: 1.89e-06 rev/day^2
Epoch rev: 44662
Checksum: 326
Satellite: CO-57
Catalog number: 27848
Epoch time: 12039.55435941
Element set: 0255
Inclination: 098.7136 deg
RA of node: 049.0925 deg
Eccentricity: 0.0008666
Arg of perigee: 239.9856 deg
Mean anomaly: 120.0470 deg
Mean motion: 14.20718783 rev/day
Decay rate: 1.66e-06 rev/day^2
Epoch rev: 44642
Checksum: 333
Satellite: AO-51
Catalog number: 28375
Epoch time: 12039.43496945
Element set: 0190
Inclination: 098.1285 deg
RA of node: 010.8706 deg
Eccentricity: 0.0084688
Arg of perigee: 073.7964 deg
Mean anomaly: 287.2525 deg
Mean motion: 14.40892449 rev/day
Decay rate: 1.63e-06 rev/day^2
Epoch rev: 40008
Checksum: 333
Satellite: CP3
Catalog number: 31129
Epoch time: 12040.51190116
Element set: 89
Inclination: 097.8862 deg
RA of node: 055.8598 deg
Eccentricity: 0.0101590
Arg of perigee: 162.8242 deg
Mean anomaly: 197.6397 deg
Mean motion: 14.52880750 rev/day
Decay rate: 2.21e-06 rev/day^2
Epoch rev: 25529
Checksum: 307
Satellite: CO-65
Catalog number: 32785
Epoch time: 12039.81787818
Element set: 0225
Inclination: 097.8192 deg
RA of node: 103.8559 deg
Eccentricity: 0.0015631
Arg of perigee: 122.0726 deg
Mean anomaly: 238.1984 deg
Mean motion: 14.82671605 rev/day
Decay rate: 1.190e-05 rev/day^2
Epoch rev: 20459
Checksum: 326
Satellite: PRISM
Catalog number: 33493
Epoch time: 12040.77332458
Element set: 410
Inclination: 098.1493 deg
RA of node: 178.4954 deg
Eccentricity: 0.0018977
Arg of perigee: 356.6472 deg
Mean anomaly: 003.4616 deg
Mean motion: 14.83171220 rev/day
Decay rate: 1.982e-05 rev/day^2
Epoch rev: 16471
Checksum: 306
Satellite: SOHLA-1
Catalog number: 33496
Epoch time: 12039.90428514
Element set: 0656
Inclination: 098.0927 deg
RA of node: 152.6049 deg
Eccentricity: 0.0007652
Arg of perigee: 091.4916 deg
Mean anomaly: 268.7167 deg
Mean motion: 14.69861789 rev/day
Decay rate: 2.39e-06 rev/day^2
Epoch rev: 16325
Checksum: 340
Satellite: SO-67
Catalog number: 35870
Epoch time: 12040.75858821
Element set: 667
Inclination: 097.2508 deg
RA of node: 081.0086 deg
Eccentricity: 0.0000541
Arg of perigee: 290.5717 deg
Mean anomaly: 175.2118 deg
Mean motion: 15.22739948 rev/day
Decay rate: 3.161e-05 rev/day^2
Epoch rev: 13306
Checksum: 309
Satellite: TISAT-1
Catalog number: 36799
Epoch time: 12040.83159383
Element set: 683
Inclination: 098.0747 deg
RA of node: 116.2143 deg
Eccentricity: 0.0014086
Arg of perigee: 225.6043 deg
Mean anomaly: 134.4009 deg
Mean motion: 14.81498260 rev/day
Decay rate: 1.328e-05 rev/day^2
Epoch rev: 8548
Checksum: 305
Satellite: STUDSAT
Catalog number: 36801
Epoch time: 12039.92167228
Element set: 0371
Inclination: 098.0818 deg
RA of node: 115.5298 deg
Eccentricity: 0.0012383
Arg of perigee: 215.3955 deg
Mean anomaly: 144.6435 deg
Mean motion: 14.83052922 rev/day
Decay rate: 3.404e-05 rev/day^2
Epoch rev: 08535
Checksum: 296
Satellite: FO-69
Catalog number: 37227
Epoch time: 12040.49018146
Element set: 0098
Inclination: 071.9678 deg
RA of node: 235.9144 deg
Eccentricity: 0.0017989
Arg of perigee: 204.9902 deg
Mean anomaly: 155.0391 deg
Mean motion: 14.76920042 rev/day
Decay rate: 3.91e-06 rev/day^2
Epoch rev: 01709
Checksum: 318
Satellite: FO-70
Catalog number: 37380
Epoch time: 12040.54208318
Element set: 0102
Inclination: 071.9713 deg
RA of node: 236.1992 deg
Eccentricity: 0.0018541
Arg of perigee: 201.6793 deg
Mean anomaly: 158.3586 deg
Mean motion: 14.76677572 rev/day
Decay rate: 3.44e-06 rev/day^2
Epoch rev: 01699
Checksum: 310
/EX
SB KEPS @ AMSAT $ORB12040.W
Orbital Elements 12040.WEATHER
HR AMSAT ORBITAL ELEMENTS FOR WEATHER SATELLITES
FROM WA5QGD FORT WORTH,TX February 9, 2012
Send SUBSCRIBE KEPS/UNSUBSCRIBE KEPS to majordomo at amsat.org only
BID: ORB12040.W
TO ALL RADIO AMATEURS BT
Satellite: NOAA-10
Catalog number: 16969
Epoch time: 12039.91351093
Element set: 0810
Inclination: 098.5951 deg
RA of node: 071.1816 deg
Eccentricity: 0.0011472
Arg of perigee: 252.4542 deg
Mean anomaly: 107.5378 deg
Mean motion: 14.27525570 rev/day
Decay rate: -5.0e-07 rev/day^2
Epoch rev: 32142
Checksum: 285
Satellite: NOAA-11
Catalog number: 19531
Epoch time: 12039.88150175
Element set: 0809
Inclination: 098.7386 deg
RA of node: 127.7395 deg
Eccentricity: 0.0010479
Arg of perigee: 231.4171 deg
Mean anomaly: 128.6078 deg
Mean motion: 14.14950922 rev/day
Decay rate: -1.31e-06 rev/day^2
Epoch rev: 20622
Checksum: 300
Satellite: NOAA-12
Catalog number: 21263
Epoch time: 12039.96588726
Element set: 0314
Inclination: 098.7381 deg
RA of node: 062.1783 deg
Eccentricity: 0.0013100
Arg of perigee: 214.1128 deg
Mean anomaly: 145.9212 deg
Mean motion: 14.25476432 rev/day
Decay rate: 3.3e-07 rev/day^2
Epoch rev: 07814
Checksum: 277
